Other Public Products
Issued by NWS Charleston, SC

Current Version | Previous Version | Graphics & Text | Print | Product List | Glossary On
Versions: 1 2 3 4 5 6 7 8 9 10 11 12 13 14 15 16 17 18 19 20 21 22 23 24 25 26 27 28 29 30 31 32 33 34 35 36 37 38 39 40 41 42 43 44 45 46 47 48 49 50
000 FPUS82 KCHS 211112 OPUCHS TEST...KCHS/KSAV Gateway Observations...TEST National Weather Service Charleston SC 600 AM EST SUN JAN 21 2018 NOTE: "fair" indicates few or no clouds below 12,000 feet with no significant weather and/or obstructions to visibility. SCZ050-WAZ558-NCZ071-TXZ119-213-PAZ071-DCZ001-FLZ074-172-MI076- NYZ176-178-MAZ016-IL014-TNZ027-NJZ106-GAZ044-MD014-211200- ...Gateway Observations for Charleston International... CITY SKY/WX TMP DP RH WIND PRES REMARKS Chas Airport MOCLDY 48 30 49 CALM 30.25R Seattle CLOUDY 49 35 58 S21G36 29.88F Charlotte FAIR 37 33 85 N3 30.23R Dallas DFW MOCLDY 65 59 81 S17 29.88R Dallas Love CLOUDY 65 58 78 S14G25 29.89S Philladelphia FAIR 31 27 85 CALM 30.16R Wash National FAIR 34 32 92 S5 30.18R WCI 30 Baltimore FAIR 30 28 92 W5 30.15R WCI 25 Miami CLOUDY 72 65 78 E8 30.15R Detroit CLOUDY 35 35 100 S5 30.07R FOG WCI 31 Newark FAIR 36 28 73 SW5 30.12R WCI 32 Laguardia FAIR 44 27 51 W5 30.11R J F K FAIR 33 29 85 W10 30.12R WCI 25 Boston Logan CLOUDY 36 29 75 CALM 30.07R Ft. Lauderdale MOCLDY 70 66 87 SE17 30.13F Chicago O`Hare MOCLDY 36 34 92 SE3 29.97S Chicago Midway CLOUDY 40 38 93 S5 29.99R WCI 37 Houston Bush CLOUDY 67 65 93 S13 29.99F Houston Hobby CLOUDY 64 64 100 SE8 29.99F Nashville FAIR 51 38 60 S3 30.17R Atlanta FAIR 42 36 79 CALM 30.23R $$ GAZ044-118-TXZ119-213-NCZ071-DCZ001-MDZ014-506-PAZ021-071-NJZ106- NYZ176-178-MAZ106-OHZ011-021-055-MIZ076-KYZ091-ILZ014-INZ047- MNZ060-ONZ431-211200- ...Gateway Observations for Savannah International... CITY SKY/WX TMP DP RH WIND PRES REMARKS Savannah Arpt MOCLDY 47 30 51 S3 30.27R Atlanta FAIR 42 36 79 CALM 30.23R Charlotte FAIR 37 33 85 N3 30.23R Dallas DFW MOCLDY 65 59 81 S17 29.88R Houston Bush CLOUDY 67 65 93 S13 29.99F Wash National FAIR 34 32 92 S5 30.18R WCI 30 Wash Dulles MOCLDY 30 28 92 CALM 30.16R Baltimore FAIR 30 28 92 W5 30.15R WCI 25 Philadelphia FAIR 31 27 85 CALM 30.16R Newark FAIR 36 28 73 SW5 30.12R WCI 32 Laguardia FAIR 44 27 51 W5 30.11R J F K FAIR 33 29 85 W10 30.12R WCI 25 Boston CLOUDY 36 29 75 CALM 30.07R Pittsburg DRZL/FOG 40 40 100 S3 30.11S VSB 1/2 Akron LGT RAIN 37 35 92 S6 30.09S VSB 1/4 WCI 32 Cleveland CLOUDY 39 37 92 S8 30.11S FOG WCI 33 Cincinnati CLOUDY 45 40 82 S6 30.09R Columbus LGT RAIN 39 39 100 CALM 30.10S Detroit CLOUDY 35 35 100 S5 30.07R FOG WCI 31 Chicago O`Hare MOCLDY 36 34 92 SE3 29.97S Minneapolis CLOUDY 33 31 92 NW3 29.96S Indianapolis LGT RAIN 42 41 96 SE5 30.04S FOG Toronto Canada CLOUDY 30 27 86 SW2 30.07R $$

USA.gov is the U.S. government's official web portal to all federal, state and local government web resources and services.